TimeCDT,TemperatureF,Dew PointF,Humidity,Sea Level PressureIn,VisibilityMPH,Wind Direction,Wind SpeedMPH,Gust SpeedMPH,PrecipitationIn,Events,Conditions,WindDirDegrees,DateUTC
12:15 AM,43.0,32.0,65,30.04,10.0,North,4.6,-,N/A,,Clear,350,2012-10-15 05:15:00
12:35 AM,41.2,31.5,68,30.04,10.0,WNW,3.5,-,N/A,,Clear,300,2012-10-15 05:35:00
12:55 AM,41.2,31.6,69,30.04,10.0,NNW,5.8,-,N/A,,Clear,330,2012-10-15 05:55:00
1:15 AM,43.0,31.5,64,30.04,10.0,NW,6.9,-,N/A,,Clear,320,2012-10-15 06:15:00
1:35 AM,41.7,31.6,67,30.03,10.0,NW,5.8,-,N/A,,Clear,310,2012-10-15 06:35:00
1:55 AM,40.6,31.1,69,30.04,10.0,WSW,8.1,-,N/A,,Clear,240,2012-10-15 06:55:00
2:15 AM,40.6,31.5,70,30.04,10.0,West,8.1,-,N/A,,Clear,260,2012-10-15 07:15:00
2:35 AM,42.4,32.2,67,30.04,10.0,West,5.8,-,N/A,,Clear,260,2012-10-15 07:35:00
2:55 AM,41.7,32.0,68,30.04,10.0,West,4.6,-,N/A,,Clear,270,2012-10-15 07:55:00
3:15 AM,41.5,32.2,69,30.04,10.0,West,5.8,-,N/A,,Clear,280,2012-10-15 08:15:00
3:35 AM,39.4,31.8,74,30.02,10.0,WNW,4.6,-,N/A,,Clear,300,2012-10-15 08:35:00
3:55 AM,39.6,31.6,73,30.01,10.0,NW,4.6,-,N/A,,Clear,310,2012-10-15 08:55:00
4:15 AM,38.3,30.9,75,30.01,10.0,NNW,5.8,-,N/A,,Clear,330,2012-10-15 09:15:00
4:55 AM,38.5,31.3,75,30.00,10.0,West,5.8,-,N/A,,Clear,270,2012-10-15 09:55:00
5:15 AM,38.5,31.3,75,30.00,10.0,West,4.6,-,N/A,,Clear,280,2012-10-15 10:15:00
5:35 AM,37.9,31.5,77,29.99,10.0,NW,5.8,-,N/A,,Clear,310,2012-10-15 10:35:00
5:55 AM,37.8,31.3,77,29.99,10.0,West,5.8,-,N/A,,Clear,280,2012-10-15 10:55:00
6:15 AM,37.0,31.3,80,29.99,10.0,WNW,4.6,-,N/A,,Clear,290,2012-10-15 11:15:00
6:35 AM,36.1,30.6,80,29.99,10.0,WNW,3.5,-,N/A,,Clear,290,2012-10-15 11:35:00
6:55 AM,36.1,30.9,81,29.99,10.0,NW,3.5,-,N/A,,Clear,310,2012-10-15 11:55:00
7:15 AM,36.0,30.6,81,29.98,10.0,WNW,3.5,-,N/A,,Clear,290,2012-10-15 12:15:00
7:35 AM,35.8,30.7,82,29.98,10.0,West,4.6,-,N/A,,Clear,270,2012-10-15 12:35:00
7:55 AM,36.3,31.3,82,29.98,10.0,West,3.5,-,N/A,,Clear,280,2012-10-15 12:55:00
8:15 AM,37.8,32.0,80,29.98,10.0,WNW,3.5,-,N/A,,Clear,300,2012-10-15 13:15:00
8:35 AM,40.1,33.4,77,29.98,10.0,West,3.5,-,N/A,,Clear,280,2012-10-15 13:35:00
8:55 AM,43.5,35.1,72,29.98,10.0,Calm,Calm,-,N/A,,Clear,0,2012-10-15 13:55:00
9:15 AM,45.5,36.0,69,29.98,7.0,NW,3.5,-,N/A,,Clear,310,2012-10-15 14:15:00
9:35 AM,47.3,36.9,67,29.98,7.0,Calm,Calm,-,N/A,,Clear,0,2012-10-15 14:35:00
9:55 AM,50.4,37.4,61,29.98,5.0,West,3.5,-,N/A,,Haze,280,2012-10-15 14:55:00
10:15 AM,52.5,37.0,56,29.98,10.0,West,4.6,-,N/A,,Clear,260,2012-10-15 15:15:00
10:35 AM,54.0,36.5,52,29.97,10.0,WSW,3.5,-,N/A,,Clear,250,2012-10-15 15:35:00
10:55 AM,56.7,36.7,47,29.97,10.0,West,4.6,-,N/A,,Clear,260,2012-10-15 15:55:00
11:15 AM,59.7,37.4,43,29.96,10.0,WSW,5.8,-,N/A,,Clear,250,2012-10-15 16:15:00
11:35 AM,62.8,37.6,39,29.95,10.0,SW,5.8,-,N/A,,Clear,230,2012-10-15 16:35:00
11:55 AM,66.0,37.8,35,29.94,10.0,SW,5.8,-,N/A,,Clear,230,2012-10-15 16:55:00
12:15 PM,70.7,36.7,29,29.93,10.0,WSW,8.1,-,N/A,,Clear,250,2012-10-15 17:15:00
12:35 PM,73.9,35.8,25,29.92,10.0,West,8.1,-,N/A,,Clear,260,2012-10-15 17:35:00
12:55 PM,74.3,35.4,24,29.91,10.0,West,9.2,-,N/A,,Clear,260,2012-10-15 17:55:00
1:15 PM,75.0,35.1,23,29.91,10.0,WSW,8.1,-,N/A,,Clear,250,2012-10-15 18:15:00
1:35 PM,77.2,35.4,22,29.90,10.0,SW,9.2,-,N/A,,Clear,230,2012-10-15 18:35:00
1:55 PM,77.5,34.9,21,29.88,10.0,West,6.9,-,N/A,,Clear,280,2012-10-15 18:55:00
2:15 PM,79.2,34.2,20,29.87,10.0,WSW,9.2,-,N/A,,Clear,240,2012-10-15 19:15:00
2:35 PM,80.4,32.7,18,29.85,10.0,West,6.9,-,N/A,,Clear,260,2012-10-15 19:35:00
2:55 PM,81.1,32.0,17,29.84,10.0,SW,10.4,-,N/A,,Clear,230,2012-10-15 19:55:00
3:15 PM,80.2,32.9,18,29.83,10.0,WSW,10.4,-,N/A,,Clear,250,2012-10-15 20:15:00
3:35 PM,81.7,33.4,18,29.82,10.0,WSW,11.5,18.4,N/A,,Clear,240,2012-10-15 20:35:00
3:55 PM,82.4,33.8,17,29.82,10.0,WSW,12.7,17.3,N/A,,Clear,240,2012-10-15 20:55:00
4:15 PM,82.4,32.9,17,29.81,10.0,WSW,13.8,20.7,N/A,,Clear,250,2012-10-15 21:15:00
4:35 PM,82.8,32.5,16,29.80,10.0,WSW,11.5,17.3,N/A,,Clear,240,2012-10-15 21:35:00
4:55 PM,82.4,32.0,16,29.79,10.0,WSW,10.4,-,N/A,,Clear,240,2012-10-15 21:55:00
5:15 PM,82.4,32.0,16,29.79,10.0,WSW,8.1,-,N/A,,Clear,250,2012-10-15 22:15:00
5:35 PM,81.9,32.0,16,29.78,10.0,WSW,9.2,-,N/A,,Clear,240,2012-10-15 22:35:00
5:55 PM,81.0,33.4,18,29.78,10.0,SSW,6.9,-,N/A,,Clear,210,2012-10-15 22:55:00
6:15 PM,79.3,34.5,20,29.78,10.0,SSW,5.8,-,N/A,,Clear,210,2012-10-15 23:15:00
6:35 PM,75.9,34.0,22,29.77,10.0,South,6.9,-,N/A,,Clear,190,2012-10-15 23:35:00
6:55 PM,71.6,33.1,24,29.77,10.0,South,6.9,-,N/A,,Clear,180,2012-10-15 23:55:00
7:15 PM,68.7,32.5,26,29.76,10.0,South,8.1,-,N/A,,Clear,180,2012-10-16 00:15:00
7:35 PM,65.7,32.0,29,29.77,7.0,South,8.1,-,N/A,,Clear,180,2012-10-16 00:35:00
7:55 PM,64.0,32.7,31,29.76,10.0,South,9.2,-,N/A,,Clear,170,2012-10-16 00:55:00
8:15 PM,63.7,33.3,32,29.76,10.0,South,10.4,-,N/A,,Clear,170,2012-10-16 01:15:00
8:35 PM,61.7,33.6,35,29.76,7.0,South,8.1,-,N/A,,Clear,170,2012-10-16 01:35:00
8:55 PM,60.3,35.1,39,29.76,10.0,South,6.9,-,N/A,,Clear,170,2012-10-16 01:55:00
9:15 PM,59.4,35.8,41,29.76,10.0,South,8.1,-,N/A,,Clear,180,2012-10-16 02:15:00
9:35 PM,63.0,37.2,38,29.76,10.0,South,8.1,-,N/A,,Clear,170,2012-10-16 02:35:00
9:55 PM,61.0,38.7,44,29.76,10.0,South,9.2,-,N/A,,Clear,170,2012-10-16 02:55:00
10:15 PM,60.1,39.6,47,29.76,10.0,South,9.2,-,N/A,,Clear,180,2012-10-16 03:15:00
10:35 PM,61.7,39.6,44,29.75,10.0,South,11.5,-,N/A,,Clear,170,2012-10-16 03:35:00
10:55 PM,61.0,40.1,46,29.75,10.0,South,9.2,-,N/A,,Clear,170,2012-10-16 03:55:00
11:15 PM,60.1,40.6,49,29.74,10.0,South,6.9,-,N/A,,Clear,170,2012-10-16 04:15:00
11:35 PM,59.0,40.8,51,29.74,10.0,SSE,3.5,-,N/A,,Clear,150,2012-10-16 04:35:00
11:55 PM,56.7,41.0,56,29.74,10.0,Calm,Calm,-,N/A,,Clear,0,2012-10-16 04:55:00